Change the Weather History Date:

Wednesday, July 17, 2013

  Actual Average Record
Temperature  
Mean Temperature 83 °F 77 °F  
Max Temperature 99 °F 94 °F 107 °F (2004)
Min Temperature 67 °F 58 °F 39 °F (1986)
Degree Days  
Heating Degree Days 0 0  
Month to date heating degree days 0 6  
Cooling Degree Days 18 12  
Month to date cooling degree days 249 165  
Growing Degree Days 34 (Base 50)    
Moisture  
Dew Point 42 °F    
Average Humidity 27    
Maximum Humidity 59    
Minimum Humidity 6    
Precipitation  
Precipitation 0.00 in 0.00 in 0.14 in (1923)
Month to date precipitation T 0.12  
Sea Level Pressure  
Sea Level Pressure 29.92 in    
Wind  
Wind Speed 10 mph (NW)    
Max Wind Speed 18 mph    
Max Gust Speed 26 mph    
Visibility 10 miles    
Events      
T = Trace of Precipitation, MM = Missing Value Source: NWS Daily Summary

Daily Weather History Graph

Daily Weather History Graph

Search for Another Location

Airport or City:

Trip Planner

Search our weather history database for the weather conditions in past years. The results will help you decide how hot, cold, wet, or windy it might be!

Date:

Astronomy

Jul. 17, 2013 Rise Set
Actual Time 6:19 AM MDT 9:19 PM MDT
Civil Twilight 5:45 AM MDT 9:52 PM MDT
Nautical Twilight 5:02 AM MDT 10:35 PM MDT
Astronomical Twilight 4:11 AM MDT 11:26 PM MDT
Moon 4:11 PM MDT (7/17) 1:32 AM MDT (7/17)
Length of Visible Light 16h 06m
Length of Day
14h 59m
Waxing Gibbous, 68% of the Moon is Illuminated
Jul 17
Waxing Gibbous
Jul 22
Full
Jul 29
Last Quarter
Aug 6
New
Aug 14
First Quarter

Hourly Weather History & Observations

Time (MDT) Temp. Heat Index Dew Point Humidity Pressure Visibility Wind Dir Wind Speed Gust Speed Precip Events Conditions
12:30 AM 80.6 °F 80.8 °F 57.2 °F 45% 29.87 in 10.0 mi South 11.5 mph - N/A   Partly Cloudy
12:58 AM 77.2 °F - 58.5 °F 52% 29.78 in 10.0 mi South 9.2 mph - N/A   Scattered Clouds
1:58 AM 74.3 °F - 57.4 °F 55% 29.78 in 10.0 mi SSE 9.2 mph - N/A   Mostly Cloudy
2:58 AM 74.1 °F - 56.3 °F 54% 29.81 in 10.0 mi West 3.5 mph - N/A   Scattered Clouds
3:58 AM 70.9 °F - 55.4 °F 58% 29.82 in 10.0 mi WNW 3.5 mph - N/A   Scattered Clouds
4:58 AM 69.6 °F - 54.7 °F 59% 29.84 in 10.0 mi NW 3.5 mph - N/A   Partly Cloudy
5:58 AM 71.6 °F - 55.0 °F 56% 29.88 in 10.0 mi NNW 4.6 mph - N/A   Clear
6:58 AM 72.3 °F - 56.3 °F 57% 29.92 in 10.0 mi ENE 2.3 mph - N/A   Clear
7:58 AM 77.2 °F - 58.8 °F 53% 29.95 in 10.0 mi NE 11.5 mph - N/A   Clear
8:58 AM 81.3 °F 81.3 °F 57.2 °F 44% 29.97 in 10.0 mi NNE 6.9 mph - N/A   Clear
9:58 AM 86.7 °F - 47.3 °F 25% 29.97 in 10.0 mi NNW 11.5 mph - N/A   Clear
10:58 AM 88.2 °F - 44.6 °F 22% 29.96 in 10.0 mi NW 12.7 mph - N/A   Clear
11:58 AM 91.2 °F - 42.6 °F 18% 29.96 in 10.0 mi NW 9.2 mph 19.6 mph N/A   Clear
12:11 PM 91.4 °F - 42.8 °F 18% 30.06 in 10.0 mi NNW 12.7 mph 26.5 mph N/A   Clear
12:58 PM 92.3 °F - 40.3 °F 16% 29.96 in 10.0 mi NW 12.7 mph 16.1 mph N/A   Clear
1:03 PM 93.2 °F - 39.2 °F 15% 30.06 in 10.0 mi West 12.7 mph - N/A   Clear
1:58 PM 93.9 °F - 39.6 °F 15% 29.96 in 10.0 mi WNW 10.4 mph 18.4 mph N/A   Clear
2:28 PM 95.0 °F - 41.0 °F 15% 30.05 in 10.0 mi West 11.5 mph 19.6 mph N/A   Clear
2:58 PM 94.6 °F - 42.4 °F 16% 29.95 in 10.0 mi WNW 10.4 mph 16.1 mph N/A   Clear
3:58 PM 96.8 °F - 42.6 °F 15% 29.93 in 10.0 mi NW 16.1 mph 19.6 mph N/A   Clear
4:58 PM 97.7 °F - 41.7 °F 15% 29.91 in 10.0 mi NW 15.0 mph - N/A   Clear
5:58 PM 98.6 °F - 33.8 °F 10% 29.88 in 10.0 mi NNW 15.0 mph 21.9 mph N/A   Clear
6:12 PM 98.6 °F - 32.0 °F 10% 29.98 in 10.0 mi WNW 16.1 mph 26.5 mph N/A   Clear
6:15 PM 98.6 °F - 32.0 °F 10% 29.98 in 10.0 mi NNW 16.1 mph - N/A   Clear
6:58 PM 98.1 °F - 24.6 °F 7% 29.87 in 10.0 mi NW 18.4 mph 23.0 mph N/A   Clear
7:58 PM 95.9 °F - 19.4 °F 6% 29.88 in 10.0 mi NNW 17.3 mph - N/A   Clear
8:58 PM 92.7 °F - 20.7 °F 7% 29.89 in 10.0 mi NNW 12.7 mph - N/A   Clear
9:58 PM 82.9 °F - 19.4 °F 9% 29.91 in 10.0 mi NW 9.2 mph - N/A   Clear
10:58 PM 76.1 °F - 22.3 °F 13% 29.94 in 10.0 mi NW 8.1 mph - N/A   Clear
11:58 PM 71.4 °F - 21.9 °F 16% 29.94 in 10.0 mi NW 6.9 mph - N/A   Clear